Powrót do katalogu

ARIANE 42P DEB

AktywnyLEO
NORAD 47107·DEBRIS·🇫🇷 France

Wystrzelony Aug 10, 1992 z Guiana Space Centre

Loading…

Następne Przeloty (najbliższe 24 godziny)

TLE

NieaktualneSource: Space-Track

Epoka: Sep 3, 2026, 14:50 UTC

1 47107U 92052N   26246.61841632  .00000653  00000-0  28911-2 0  9995
2 47107  66.0636 117.4686 0090251 251.7535 107.3645 12.84769482316902

Śledź ARIANE 42P DEB w czasie rzeczywistym z AllMySat

Download on the App Store